Location: Go�ngahuizen
(53.0821°N, 5.8849°E)
Time: 21:42:14
(UTC+00:00)

STPSAT 2 (USA 217) - Pass Details

Date: 09 April 2020
Orbit: 622 x 646 km, 72.0° (Epoch: 16 May)

Event Time Altitude Azimuth Distance (km) Brightness Sun altitude
Rises 20:27:31 0° 205° (SSW) 2,893 7.8 -16.9°
Reaches altitude 10° 20:29:45 10° 204° (SSW) 1,991 7.0 -17.1°
Maximum altitude 20:34:13 82° 119° (ESE) 638 4.5 -17.6°
Drops below altitude 10° 20:38:44 10° 31° (NNE) 2,013 7.3 -18.1°
Sets 20:41:01 0° 31° (NNE) 2,928 8.2 -18.4°
